sat.trackr.live / text

‹ back to catalog

STARLINK-35647

NORAD 66388 · 2025-257J

PAYLOAD ACTIVE UNKNOWN

§ Identity

Operator
Country
US
Launch date
2025-11-09
Launch site
AFETR
Launch vehicle
Mass (kg)
RCS (m²)

Purposes: comms

External: N2YO · Heavens-Above · Gunter

§ Orbital elements

Epoch: 2026-05-25T05:08:25.652256Z

Period
94.10 min
Inclination
53.1586°
Eccentricity
0.0001324
Mean motion
15.30207836 rev/d
Perigee alt
474.3 km
Apogee alt
476.1 km
Semi-major
6,853.3 km
B*
4.9000e-4
RAAN
221.2979°
Arg perigee
85.8815°
Mean anomaly
274.2337°
Rev number
3,144

§ Raw data

STARLINK-356471 66388U 25257J   26145.21418579  .00014185  00000+0  49000-3 0  99912 66388  53.1586 221.2979 0001324  85.8815 274.2337 15.30207836 31443

JSON: /api/v1/satellites/66388 · /tle

For live sub-satellite position, see the globe view (requires WebGL).

§ Visibility from observer

Set your observer location to see the next 7 days of passes ≥ 10°. The values pass through the URL so the page stays shareable.

No JS? Fill the form by hand. The geolocation button needs JavaScript.